• In Belarus
  • List of Countries
  • For 7 days
  • Water Temperature
  • Satellite Maps
  • Weather Map
  • Weather Widgets
  • user-avatar
    Login

    Hourly Weather Chinna Salem

    Today, 25 September, Tuesday

    Time Temperature Precipitation Wind Pressure Humidity
    00:00 +28°C° 0.2 mm 1 mps 748 mmHg 79%
    01:00 +28°C° 0.2 mm 1 mps 747 mmHg 80%
    02:00 +28°C° 0.2 mm 1 mps 747 mmHg 80%
    03:00 +28°C° 0 mm 1 mps 747 mmHg 81%
    04:00 +28°C° 0 mm 1 mps 747 mmHg 81%
    05:00 +25°C° 0 mm 0 mps 747 mmHg 81%
    06:00 +29°C° 0 mm 1 mps 747 mmHg 76%
    07:00 +30°C° 0 mm 1 mps 747 mmHg 70%
    08:00 +31°C° 0 mm 1 mps 748 mmHg 65%
    09:00 +33°C° 0 mm 1 mps 747 mmHg 59%
    10:00 +33°C° 0 mm 0 mps 747 mmHg 52%
    11:00 +34°C° 0 mm 0 mps 747 mmHg 46%
    12:00 +36°C° 0 mm 1 mps 747 mmHg 45%
    13:00 +36°C° 0 mm 1 mps 746 mmHg 44%
    14:00 +37°C° 0 mm 2 mps 745 mmHg 43%
    15:00 +37°C° 0 mm 2 mps 745 mmHg 46%
    16:00 +36°C° 0 mm 2 mps 745 mmHg 49%
    17:00 +35°C° 0 mm 2 mps 744 mmHg 52%
    18:00 +34°C° 0.1 mm 2 mps 745 mmHg 57%
    19:00 +33°C° 0.1 mm 3 mps 745 mmHg 62%
    20:00 +31°C° 0.1 mm 3 mps 746 mmHg 68%
    21:00 +30°C° 0.3 mm 2 mps 746 mmHg 71%
    22:00 +29°C° 0.3 mm 2 mps 746 mmHg 75%
    23:00 +29°C° 0.3 mm 1 mps 747 mmHg 79%

    Tomorrow, 26 September, Wednesday

    Time Temperature Precipitation Wind Pressure Humidity
    00:00 +29°C° 0.2 mm 1 mps 746 mmHg 80%
    01:00 +28°C° 0.2 mm 1 mps 746 mmHg 81%
    02:00 +28°C° 0.2 mm 1 mps 745 mmHg 81%
    03:00 +28°C° 0 mm 1 mps 745 mmHg 82%
    04:00 +28°C° 0 mm 1 mps 745 mmHg 82%
    05:00 +27°C° 0 mm 1 mps 745 mmHg 83%
    06:00 +29°C° 0 mm 1 mps 746 mmHg 77%
    07:00 +30°C° 0 mm 1 mps 746 mmHg 71%
    08:00 +31°C° 0 mm 1 mps 747 mmHg 65%
    09:00 +33°C° 0 mm 1 mps 747 mmHg 59%
    10:00 +35°C° 0 mm 1 mps 746 mmHg 53%
    11:00 +36°C° 0 mm 1 mps 746 mmHg 47%
    12:00 +36°C° 0 mm 1 mps 745 mmHg 47%
    13:00 +37°C° 0 mm 2 mps 744 mmHg 46%
    14:00 +37°C° 0 mm 2 mps 744 mmHg 45%
    15:00 +37°C° 0.1 mm 2 mps 744 mmHg 48%
    16:00 +36°C° 0.1 mm 2 mps 744 mmHg 50%
    17:00 +36°C° 0.1 mm 3 mps 744 mmHg 53%
    18:00 +34°C° 0 mm 3 mps 744 mmHg 59%
    19:00 +33°C° 0 mm 3 mps 745 mmHg 65%
    20:00 +31°C° 0 mm 3 mps 746 mmHg 71%
    21:00 +30°C° 0.6 mm 2 mps 746 mmHg 74%
    22:00 +29°C° 0.6 mm 2 mps 746 mmHg 78%
    23:00 +29°C° 0.6 mm 1 mps 746 mmHg 82%

    Day after tomorrow, 27 September, Thursday

    Time Temperature Precipitation Wind Pressure Humidity
    00:00 +28°C° 0.3 mm 1 mps 746 mmHg 82%
    01:00 +28°C° 0.3 mm 1 mps 745 mmHg 83%
    02:00 +28°C° 0.3 mm 1 mps 745 mmHg 83%
    03:00 +28°C° 0 mm 1 mps 745 mmHg 83%
    04:00 +28°C° 0 mm 1 mps 745 mmHg 83%
    05:00 +27°C° 0 mm 1 mps 745 mmHg 84%
    06:00 +29°C° 0 mm 1 mps 746 mmHg 77%
    07:00 +30°C° 0 mm 1 mps 746 mmHg 71%
    08:00 +31°C° 0 mm 1 mps 747 mmHg 65%
    09:00 +33°C° 0 mm 1 mps 747 mmHg 59%
    10:00 +35°C° 0 mm 2 mps 746 mmHg 54%
    11:00 +36°C° 0 mm 2 mps 746 mmHg 49%
    12:00 +37°C° 0.1 mm 2 mps 745 mmHg 47%
    13:00 +37°C° 0.1 mm 2 mps 744 mmHg 46%
    14:00 +37°C° 0.1 mm 2 mps 743 mmHg 45%
    15:00 +37°C° 0 mm 2 mps 743 mmHg 47%
    16:00 +36°C° 0 mm 2 mps 743 mmHg 50%
    17:00 +36°C° 0 mm 2 mps 744 mmHg 52%
    18:00 +34°C° 0.1 mm 2 mps 744 mmHg 58%
    19:00 +32°C° 0.1 mm 2 mps 745 mmHg 63%
    20:00 +31°C° 0.1 mm 3 mps 746 mmHg 68%
    21:00 +30°C° 0.2 mm 2 mps 746 mmHg 72%
    22:00 +29°C° 0.2 mm 2 mps 746 mmHg 76%
    23:00 +29°C° 0.2 mm 1 mps 747 mmHg 80%

    28 September, Friday

    Time Temperature Precipitation Wind Pressure Humidity
    00:00 +28°C° 0.1 mm 1 mps 746 mmHg 81%
    01:00 +28°C° 0.1 mm 1 mps 746 mmHg 82%
    02:00 +28°C° 0.1 mm 1 mps 745 mmHg 83%
    03:00 +28°C° 0 mm 1 mps 745 mmHg 83%
    04:00 +28°C° 0 mm 1 mps 745 mmHg 84%
    05:00 +28°C° 0 mm 1 mps 745 mmHg 84%
    06:00 +29°C° 0 mm 1 mps 746 mmHg 78%
    07:00 +30°C° 0 mm 1 mps 747 mmHg 72%
    08:00 +31°C° 0 mm 2 mps 747 mmHg 67%
    09:00 +34°C° 0 mm 2 mps 747 mmHg 61%
    10:00 +35°C° 0 mm 2 mps 747 mmHg 55%
    11:00 +36°C° 0 mm 2 mps 746 mmHg 50%
    12:00 +36°C° 0.1 mm 2 mps 745 mmHg 49%
    13:00 +36°C° 0.1 mm 2 mps 744 mmHg 48%
    14:00 +37°C° 0.1 mm 2 mps 743 mmHg 48%
    15:00 +36°C° 0.1 mm 2 mps 744 mmHg 51%
    16:00 +35°C° 0.1 mm 2 mps 744 mmHg 53%
    17:00 +35°C° 0.1 mm 2 mps 744 mmHg 56%
    18:00 +34°C° 0 mm 3 mps 745 mmHg 60%
    19:00 +33°C° 0 mm 3 mps 746 mmHg 64%
    20:00 +31°C° 0 mm 3 mps 746 mmHg 68%
    21:00 +30°C° 0.2 mm 2 mps 746 mmHg 72%
    22:00 +29°C° 0.2 mm 2 mps 747 mmHg 75%
    23:00 +29°C° 0.2 mm 2 mps 747 mmHg 78%

    29 September, Saturday

    Time Temperature Precipitation Wind Pressure Humidity
    00:00 +28°C° 0.1 mm 1 mps 746 mmHg 80%
    01:00 +28°C° 0.1 mm 1 mps 746 mmHg 81%
    02:00 +28°C° 0.1 mm 1 mps 745 mmHg 83%
    03:00 +28°C° 0 mm 1 mps 745 mmHg 83%
    04:00 +27°C° 0 mm 1 mps 745 mmHg 84%
    05:00 +27°C° 0 mm 1 mps 746 mmHg 85%
    06:00 +29°C° 0 mm 1 mps 746 mmHg 79%
    07:00 +30°C° 0 mm 1 mps 747 mmHg 73%
    08:00 +31°C° 0 mm 1 mps 748 mmHg 67%
    09:00 +33°C° 0 mm 1 mps 747 mmHg 60%
    10:00 +35°C° 0 mm 1 mps 747 mmHg 53%
    11:00 +34°C° 0 mm 0 mps 746 mmHg 46%
    12:00 +37°C° 0 mm 1 mps 745 mmHg 44%
    13:00 +37°C° 0 mm 1 mps 744 mmHg 42%
    14:00 +38°C° 0 mm 2 mps 744 mmHg 40%
    15:00 +37°C° 0 mm 2 mps 744 mmHg 44%
    16:00 +36°C° 0 mm 2 mps 744 mmHg 48%
    17:00 +36°C° 0 mm 3 mps 744 mmHg 51%
    18:00 +34°C° 0.8 mm 3 mps 745 mmHg 58%
    19:00 +33°C° 0.8 mm 3 mps 746 mmHg 65%
    20:00 +30°C° 0.8 mm 3 mps 746 mmHg 72%
    21:00 +30°C° 0.5 mm 3 mps 746 mmHg 75%
    22:00 +29°C° 0.5 mm 2 mps 746 mmHg 78%
    23:00 +29°C° 0.5 mm 1 mps 746 mmHg 81%

    30 September, Sunday

    Time Temperature Precipitation Wind Pressure Humidity
    00:00 +29°C° 0.3 mm 1 mps 746 mmHg 82%
    01:00 +28°C° 0.3 mm 1 mps 745 mmHg 82%
    02:00 +28°C° 0.3 mm 1 mps 745 mmHg 82%
    03:00 +28°C° 0 mm 1 mps 745 mmHg 82%
    04:00 +28°C° 0 mm 1 mps 745 mmHg 82%
    05:00 +28°C° 0 mm 1 mps 746 mmHg 82%
    06:00 +29°C° 0 mm 1 mps 746 mmHg 77%
    07:00 +30°C° 0 mm 1 mps 747 mmHg 72%
    08:00 +31°C° 0 mm 1 mps 747 mmHg 68%
    09:00 +32°C° 0 mm 1 mps 747 mmHg 61%
    10:00 +34°C° 0 mm 1 mps 747 mmHg 55%
    11:00 +35°C° 0 mm 1 mps 746 mmHg 49%
    12:00 +36°C° 0 mm 1 mps 745 mmHg 48%
    13:00 +36°C° 0 mm 1 mps 744 mmHg 48%
    14:00 +36°C° 0 mm 1 mps 743 mmHg 47%
    15:00 +36°C° 0 mm 2 mps 743 mmHg 49%
    16:00 +36°C° 0 mm 2 mps 744 mmHg 52%
    17:00 +35°C° 0 mm 2 mps 744 mmHg 54%
    18:00 +34°C° 0.1 mm 2 mps 744 mmHg 59%
    19:00 +32°C° 0.1 mm 2 mps 745 mmHg 64%
    20:00 +31°C° 0.1 mm 2 mps 746 mmHg 68%
    21:00 +30°C° 0.7 mm 2 mps 746 mmHg 72%
    22:00 +29°C° 0.7 mm 2 mps 746 mmHg 75%
    23:00 +29°C° 0.7 mm 2 mps 746 mmHg 79%
    Show more